TimeCST,TemperatureF,Dew PointF,Humidity,Sea Level PressureIn,VisibilityMPH,Wind Direction,Wind SpeedMPH,Gust SpeedMPH,PrecipitationIn,Events,Conditions,WindDirDegrees,DateUTC
12:53 AM,60.1,44.1,55,29.53,10.0,South,18.4,-,N/A,,Clear,190,2013-11-17 06:53:00
1:53 AM,57.9,45.0,62,29.52,10.0,South,18.4,-,N/A,,Clear,190,2013-11-17 07:53:00
2:53 AM,57.0,43.0,59,29.54,10.0,SSW,15.0,-,N/A,,Clear,200,2013-11-17 08:53:00
3:53 AM,57.0,41.0,55,29.54,10.0,SSW,18.4,-,N/A,,Clear,200,2013-11-17 09:53:00
4:53 AM,57.0,41.0,55,29.58,10.0,SW,13.8,-,N/A,,Clear,220,2013-11-17 10:53:00
5:53 AM,55.9,39.0,53,29.60,10.0,SSW,16.1,-,N/A,,Clear,210,2013-11-17 11:53:00
6:53 AM,50.0,39.0,66,29.68,10.0,WSW,10.4,-,N/A,,Clear,250,2013-11-17 12:53:00
7:53 AM,48.9,37.9,66,29.74,10.0,WNW,8.1,-,N/A,,Clear,300,2013-11-17 13:53:00
8:53 AM,57.9,34.0,41,29.78,10.0,North,9.2,-,N/A,,Clear,350,2013-11-17 14:53:00
9:53 AM,61.0,33.1,35,29.81,10.0,NNE,9.2,-,N/A,,Clear,20,2013-11-17 15:53:00
10:53 AM,63.0,33.1,33,29.83,10.0,NNE,8.1,-,N/A,,Clear,30,2013-11-17 16:53:00
11:53 AM,66.0,34.0,30,29.84,10.0,NNE,5.8,-,N/A,,Clear,30,2013-11-17 17:53:00
12:53 PM,68.0,33.1,27,29.84,10.0,Variable,5.8,-,N/A,,Clear,0,2013-11-17 18:53:00
1:53 PM,70.0,32.0,25,29.85,10.0,NE,8.1,-,N/A,,Clear,50,2013-11-17 19:53:00
2:53 PM,71.1,30.9,23,29.86,10.0,North,8.1,-,N/A,,Clear,360,2013-11-17 20:53:00
3:53 PM,70.0,32.0,25,29.88,10.0,ENE,9.2,-,N/A,,Clear,70,2013-11-17 21:53:00
4:53 PM,66.0,34.0,30,29.92,10.0,NE,8.1,-,N/A,,Clear,50,2013-11-17 22:53:00
5:53 PM,57.0,33.1,40,29.96,10.0,ENE,9.2,-,N/A,,Clear,70,2013-11-17 23:53:00
6:53 PM,54.0,34.0,47,30.02,10.0,ENE,9.2,-,N/A,,Clear,60,2013-11-18 00:53:00
7:53 PM,53.1,33.1,47,30.05,10.0,East,9.2,-,N/A,,Clear,80,2013-11-18 01:53:00
8:53 PM,51.1,30.9,46,30.08,10.0,ENE,10.4,-,N/A,,Clear,70,2013-11-18 02:53:00
9:53 PM,51.1,27.0,39,30.09,10.0,NE,12.7,-,N/A,,Clear,40,2013-11-18 03:53:00
10:53 PM,48.0,25.0,41,30.11,10.0,NNE,11.5,-,N/A,,Clear,30,2013-11-18 04:53:00
11:53 PM,43.0,27.0,53,30.12,10.0,NNE,10.4,-,N/A,,Clear,20,2013-11-18 05:53:00